Goldsboro, NC

8:06 PM EDT on July 20, 2017 (GMT -0400)
Seymour Johnson Air Force Base

Weather History for KGSB - October, 2012

Change the Weather History Date:

Friday, October 26, 2012

  Actual Average Record
Temperature  
Mean Temperature 66 °F -  
Max Temperature 74 °F 69 °F 82 °F (1998)
Min Temperature 56 °F 47 °F 32 °F (2013)
Growing Degree Days 16 (Base 50)    
Moisture  
Dew Point 61 °F    
Average Humidity 89    
Maximum Humidity 100    
Minimum Humidity 69    
Precipitation  
Precipitation 0.00 in - - ()
Sea Level Pressure  
Sea Level Pressure 30.02 in    
Wind  
Wind Speed 7 mph (NNE)    
Max Wind Speed 15 mph    
Max Gust Speed 23 mph    
Visibility 7 miles    
Events Fog , Rain    
Averages and records for this station are not official NWS values.
T = Trace of Precipitation, MM = Missing Value Source: NWS Daily Summary

Daily Weather History Graph

Daily Weather History Graph

Search for Another Location

Airport or City:

Trip Planner

Search our weather history database for the weather conditions in past years. The results will help you decide how hot, cold, wet, or windy it might be!

Date:

Astronomy

Oct. 26, 2012 Rise Set
Actual Time 7:28 AM EDT 6:22 PM EDT
Civil Twilight 7:02 AM EDT 6:48 PM EDT
Nautical Twilight 6:32 AM EDT 7:18 PM EDT
Astronomical Twilight 6:02 AM EDT 7:48 PM EDT
Moon 4:33 PM EDT (10/26) 4:28 AM EDT (10/26)
Length of Visible Light 11h 46m
Length of Day
10h 54m
Waxing Gibbous, 91% of the Moon is Illuminated
Oct 26
Waxing Gibbous
Oct 29
Full
Nov 6
Last Quarter
Nov 13
New
Nov 20
First Quarter

Hourly Weather History & Observations

Time (EDT) Temp. Dew Point Humidity Pressure Visibility Wind Dir Wind Speed Gust Speed Precip Events Conditions
1:55 AM 56.7 °F 55.0 °F 94% 30.07 in 10.0 mi ENE 3.5 mph - N/A   Clear
3:01 AM 59.0 °F 57.2 °F 94% 30.06 in 8.0 mi NNE 4.6 mph - N/A   Partly Cloudy
3:10 AM 59.0 °F 57.2 °F 94% 30.06 in 5.0 mi NE 5.8 mph - N/A Rain Light Rain
3:18 AM 59.0 °F 57.2 °F 94% 30.06 in 1.5 mi NE 6.9 mph - N/A Rain Light Rain
3:19 AM 59.0 °F 57.2 °F 94% 30.06 in 1.5 mi NE 6.9 mph - N/A Rain Light Rain
3:23 AM 59.0 °F 57.2 °F 94% 30.06 in 1.0 mi NNE 5.8 mph - N/A Rain Light Rain
3:27 AM 59.0 °F 57.2 °F 94% 30.06 in 0.8 mi NE 5.8 mph - N/A Rain Light Rain
3:37 AM 59.0 °F 57.2 °F 94% 30.06 in 0.8 mi NE 4.6 mph - N/A Rain Light Rain
3:40 AM 59.0 °F 57.2 °F 94% 30.06 in 0.8 mi NNE 4.6 mph - N/A Rain Light Rain
3:42 AM 59.0 °F 57.2 °F 94% 30.06 in 0.5 mi NE 4.6 mph - N/A Fog , Rain Light Rain
3:55 AM 58.8 °F 57.9 °F 97% 30.06 in 0.5 mi NE 5.8 mph - 0.00 in Fog , Rain Light Rain
4:08 AM 59.0 °F 59.0 °F 100% 30.06 in 0.5 mi NNE 4.6 mph - N/A Fog , Rain Light Rain
4:13 AM 59.0 °F 59.0 °F 100% 30.06 in 0.8 mi NE 5.8 mph - N/A Rain Light Rain
4:18 AM 59.0 °F 59.0 °F 100% 30.06 in 0.8 mi NNE 5.8 mph - N/A Rain Light Rain
4:29 AM 59.0 °F 59.0 °F 100% 30.05 in 0.8 mi NNE 8.1 mph - N/A Rain Light Rain
4:36 AM 59.0 °F 59.0 °F 100% 30.05 in 1.0 mi NNE 4.6 mph - N/A Rain Light Rain
4:40 AM 59.0 °F 59.0 °F 100% 30.05 in 1.0 mi NE 4.6 mph - N/A   Mist
4:48 AM 59.0 °F 59.0 °F 100% 30.05 in 1.0 mi NNE 5.8 mph - N/A Rain Light Rain
4:57 AM 60.8 °F 59.0 °F 94% 30.05 in 1.2 mi NNE 8.1 mph - N/A Rain Light Rain
5:02 AM 60.8 °F 59.0 °F 94% 30.06 in 1.2 mi NNE 4.6 mph - N/A Rain Light Rain
5:03 AM 60.8 °F 59.0 °F 94% 30.05 in 1.5 mi NNE 4.6 mph - N/A Rain Light Rain
5:09 AM 60.8 °F 59.0 °F 94% 30.06 in 1.5 mi NNE 8.1 mph - N/A   Overcast
5:14 AM 60.8 °F 59.0 °F 94% 30.06 in 1.8 mi NNE 6.9 mph - N/A Rain Light Rain
5:16 AM 60.8 °F 59.0 °F 94% 30.06 in 2.0 mi NE 9.2 mph - N/A Rain Light Rain
5:19 AM 60.8 °F 59.0 °F 94% 30.06 in 2.5 mi NE 6.9 mph - N/A Rain Light Rain
5:27 AM 60.8 °F 59.0 °F 94% 30.06 in 4.0 mi NNE 8.1 mph - N/A   Overcast
5:46 AM 59.0 °F 59.0 °F 100% 30.06 in 5.0 mi NE 8.1 mph - N/A   Overcast
5:55 AM 59.7 °F 58.8 °F 97% 30.06 in 5.0 mi NNE 5.8 mph - 0.00 in   Overcast
6:00 AM 59.0 °F 59.0 °F 100% 30.06 in 2.5 mi NE 6.9 mph - N/A   Overcast
6:25 AM 59.0 °F 59.0 °F 100% 30.06 in 2.5 mi NE 6.9 mph - N/A   Overcast
6:55 AM 59.2 °F 58.1 °F 96% 30.06 in 3.0 mi NE 6.9 mph - N/A   Overcast
7:04 AM 59.0 °F 59.0 °F 100% 30.06 in 6.0 mi NNE 6.9 mph - N/A Rain Light Rain
7:23 AM 59.0 °F 57.2 °F 94% 30.07 in 8.0 mi NNE 6.9 mph - N/A Rain Light Rain
7:36 AM 60.8 °F 57.2 °F 88% 30.07 in 8.0 mi NNE 9.2 mph - N/A Rain Light Rain
7:55 AM 60.1 °F 58.1 °F 93% 30.08 in 9.0 mi North 9.2 mph - 0.00 in Rain Light Rain
8:06 AM 60.8 °F 59.0 °F 94% 30.07 in 8.0 mi North 8.1 mph - N/A   Overcast
8:08 AM 60.8 °F 59.0 °F 94% 30.07 in 8.0 mi North 8.1 mph - N/A Rain Light Rain
8:13 AM 60.8 °F 59.0 °F 94% 30.08 in 8.0 mi North 5.8 mph - N/A   Overcast
8:24 AM 60.8 °F 59.0 °F 94% 30.08 in 9.0 mi North 6.9 mph - N/A Rain Light Rain
8:35 AM 60.8 °F 59.0 °F 94% 30.08 in 9.0 mi North 8.1 mph - N/A   Overcast
8:55 AM 61.5 °F 58.8 °F 91% 30.09 in 10.0 mi North 6.9 mph - N/A   Overcast
9:04 AM 62.6 °F 59.0 °F 88% 30.08 in 10.0 mi North 8.1 mph - N/A Rain Light Rain
9:15 AM 62.6 °F 59.0 °F 88% 30.09 in 10.0 mi North 8.1 mph - N/A Rain Light Rain
9:37 AM 62.6 °F 60.8 °F 94% 30.09 in 10.0 mi North 6.9 mph - N/A   Overcast
9:55 AM 63.7 °F 60.3 °F 89% 30.08 in 10.0 mi North 10.4 mph - 0.00 in   Overcast
10:07 AM 64.4 °F 60.8 °F 88% 30.08 in 10.0 mi North 8.1 mph - N/A   Overcast
10:15 AM 64.4 °F 60.8 °F 88% 30.08 in 10.0 mi North 9.2 mph - N/A Rain Light Rain
10:36 AM 64.4 °F 60.8 °F 88% 30.08 in 10.0 mi North 8.1 mph - N/A Rain Light Rain
10:54 AM 66.2 °F 62.6 °F 88% 30.07 in 10.0 mi North 9.2 mph - N/A   Overcast
10:55 AM 65.1 °F 62.2 °F 90% 30.07 in 10.0 mi North 8.1 mph - N/A   Overcast
11:33 AM 66.2 °F 62.6 °F 88% 30.07 in 10.0 mi North 8.1 mph - N/A   Overcast
11:55 AM 67.6 °F 63.7 °F 87% 30.06 in 10.0 mi North 11.5 mph - 0.00 in Rain Light Rain
12:39 PM 69.8 °F 64.4 °F 83% 30.03 in 10.0 mi North 12.7 mph 21.9 mph N/A Rain Light Rain
12:55 PM 69.4 °F 64.6 °F 84% 30.02 in 10.0 mi NNE 11.5 mph - N/A   Overcast
12:58 PM 69.8 °F 64.4 °F 83% 30.02 in 10.0 mi NNE 12.7 mph 17.3 mph N/A Rain Light Rain
1:26 PM 69.8 °F 64.4 °F 83% 30.01 in 10.0 mi North 13.8 mph - N/A   Overcast
1:27 PM 69.8 °F 64.4 °F 83% 30.01 in 10.0 mi NNE 12.7 mph - N/A Rain Light Rain
1:33 PM 69.8 °F 64.4 °F 83% 30.00 in 10.0 mi NNE 10.4 mph - N/A   Overcast
1:55 PM 70.7 °F 64.9 °F 82% 29.99 in 10.0 mi NNE 9.2 mph - N/A   Overcast
2:16 PM 71.6 °F 64.4 °F 78% 29.98 in 10.0 mi North 13.8 mph - N/A   Mostly Cloudy
2:20 PM 71.6 °F 64.4 °F 78% 29.98 in 10.0 mi NNE 10.4 mph - N/A   Overcast
2:47 PM 73.4 °F 64.4 °F 73% 29.96 in 10.0 mi NNE 12.7 mph - N/A   Mostly Cloudy
2:55 PM 73.0 °F 65.1 °F 76% 29.96 in 10.0 mi NNE 10.4 mph - N/A   Mostly Cloudy
3:55 PM 73.9 °F 64.6 °F 72% 29.93 in 10.0 mi NNE 10.4 mph - 0.00 in Rain Light Rain
4:26 PM 73.4 °F 64.4 °F 73% 29.93 in 10.0 mi NNE 6.9 mph - N/A   Mostly Cloudy
4:32 PM 75.2 °F 64.4 °F 69% 29.93 in 10.0 mi NE 13.8 mph - N/A Rain Light Rain
4:46 PM 73.4 °F 64.4 °F 73% 29.93 in 10.0 mi NE 12.7 mph - N/A   Mostly Cloudy
4:55 PM 73.8 °F 63.7 °F 71% 29.93 in 10.0 mi NE 10.4 mph - 0.00 in   Overcast
5:23 PM 73.4 °F 64.4 °F 73% 29.93 in 10.0 mi NE 8.1 mph - N/A   Overcast
5:37 PM 71.6 °F 64.4 °F 78% 29.93 in 10.0 mi NE 8.1 mph - N/A Rain Light Rain
5:48 PM 71.6 °F 64.4 °F 78% 29.93 in 10.0 mi NE 9.2 mph - N/A   Overcast
5:55 PM 71.6 °F 63.9 °F 76% 29.93 in 10.0 mi NE 9.2 mph - 0.00 in   Overcast
6:07 PM 71.6 °F 64.4 °F 78% 29.93 in 10.0 mi NE 10.4 mph 18.4 mph N/A   Overcast
6:32 PM 71.6 °F 64.4 °F 78% 29.94 in 10.0 mi NE 15.0 mph 23.0 mph N/A   Overcast
6:43 PM 69.8 °F 64.4 °F 83% 29.94 in 10.0 mi ENE 12.7 mph 21.9 mph N/A   Overcast
6:55 PM 69.8 °F 63.1 °F 79% 29.94 in 10.0 mi ENE 13.8 mph - N/A   Overcast
7:13 PM 69.8 °F 64.4 °F 83% 29.95 in 10.0 mi NE 11.5 mph 21.9 mph N/A   Mostly Cloudy
7:20 PM 68.0 °F 64.4 °F 88% 29.95 in 8.0 mi NE 12.7 mph 19.6 mph N/A Rain Light Rain
7:32 PM 68.0 °F 64.4 °F 88% 29.96 in 10.0 mi NE 12.7 mph - N/A   Overcast
7:55 PM 66.7 °F 64.8 °F 93% 29.95 in 10.0 mi NNE 9.2 mph - 0.00 in   Overcast
8:00 PM 66.2 °F 64.4 °F 94% 29.94 in 10.0 mi NNE 10.4 mph - N/A   Mostly Cloudy
8:55 PM 66.4 °F 64.0 °F 92% 29.92 in 10.0 mi NNE 8.1 mph 18.4 mph N/A   Mostly Cloudy
9:05 PM 66.2 °F 64.4 °F 94% 29.92 in 10.0 mi NNE 10.4 mph - N/A   Overcast
9:44 PM 66.2 °F 64.4 °F 94% 29.92 in 10.0 mi North 8.1 mph 17.3 mph N/A   Overcast
9:55 PM 66.2 °F 63.9 °F 92% 29.92 in 10.0 mi North 10.4 mph 17.3 mph N/A   Overcast
10:42 PM 66.2 °F 64.4 °F 94% 29.90 in 10.0 mi NNE 9.2 mph - N/A   Overcast
10:55 PM 66.4 °F 64.0 °F 92% 29.90 in 10.0 mi NNE 6.9 mph - N/A   Overcast
11:55 PM 66.4 °F 64.0 °F 92% 29.88 in 10.0 mi North 10.4 mph 17.3 mph N/A   Mostly Cloudy